This demonstration page uses our WeatherBlox Daily Observations layout. Learn more.

Left ArrowRight Arrow

34.16533, -84.80231

Hourly Observations for March 26, 2021

Temp ( °F °C ) Dew Point ( °F °C ) Humidity (%) Winds ( mph kmh ) Pressure ( in mb ) Visibility ( mi km ) Precip ( " mm )
12:10 am 00:10 Cloudy 71 21.7 66 18.9 84 84 undefined N/A 29.86 1011 10 16 0.00 0.00
12:22 am 00:22 Cloudy with Nearby Thunderstorms 70 21.1 66 18.9 87 87 S 5 7 29.86 1011 10 16 0.00 0.00
12:37 am 00:37 Cloudy 71 21.7 66 18.9 84 84 SSW 8 13 29.88 1012 10 16 0.00 0.00
12:44 am 00:44 Cloudy 72 22.2 66 18.9 82 82 VRB 7 11 29.88 1012 10 16 0.00 0.00
12:53 am 00:53 Cloudy 72 22.2 66 18.9 82 82 SSW 6 9 29.86 1011 10 16 0.00 0.00
1:00 am 01:00 Cloudy 73 22.8 66 18.9 79 79 SSW 7 11 29.88 1012 10 16 0.00 0.00
1:33 am 01:33 Cloudy 72 22.2 66 18.9 82 82 Calm 29.87 1011 10 16 0.00 0.00
1:53 am 01:53 Cloudy 72 22.2 66 18.9 82 82 Calm 29.87 1012 10 16 0.00 0.00
2:13 am 02:13 Cloudy 72 22.2 66 18.9 82 82 Calm 29.88 1012 10 16 0.00 0.00
2:32 am 02:32 Cloudy with Nearby Thunderstorms 71 21.7 66 18.9 84 84 VRB 3 6 29.89 1012 10 16 0.00 0.00
2:53 am 02:53 Cloudy 70 21.1 66 18.9 87 87 Calm 29.88 1012 10 16 0.00 0.00
3:31 am 03:31 Cloudy 69 20.6 65 18.3 87 87 Calm 29.89 1012 9 14 0.00 0.00
3:53 am 03:53 Cloudy 68 20 65 18.3 90 90 Calm 29.88 1012 9 14 0.00 0.00
4:32 am 04:32 Cloudy with Light Rain 66 18.9 62 16.7 87 87 Calm 29.93 1013 6 10 0.02 0.51
4:53 am 04:53 Cloudy 66 18.9 61 16.1 84 84 Calm 29.92 1013 10 16 0.02 0.51
5:53 am 05:53 Cloudy 65 18.3 61 16.1 87 87 Calm 29.95 1014 10 16 0.00 0.00
6:53 am 06:53 Cloudy 64 17.8 61 16.1 90 90 Calm 29.96 1015 10 16 0.00 0.00
7:53 am 07:53 Cloudy 63 17.2 59 15 87 87 Calm 29.98 1015 10 16 0.00 0.00
8:53 am 08:53 Cloudy 64 17.8 60 15.6 87 87 Calm 30.01 1016 10 16 0.00 0.00
9:53 am 09:53 Mostly Cloudy 68 20 59 15 73 73 Calm 30.03 1017 10 16 0.00 0.00
10:53 am 10:53 Mostly Cloudy 70 21.1 57 13.9 64 64 Calm 30.05 1018 10 16 0.00 0.00
11:53 am 11:53 Mostly Cloudy 71 21.7 57 13.9 61 61 NE 5 7 30.06 1018 10 16 0.00 0.00
12:53 pm 12:53 Mostly Cloudy 73 22.8 56 13.3 55 55 VRB 3 6 30.06 1018 10 16 0.00 0.00
1:53 pm 13:53 Mostly Sunny 74 23.3 57 13.9 56 56 SW 6 9 30.05 1018 10 16 0.00 0.00
2:53 pm 14:53 Mostly Cloudy 76 24.4 55 12.8 48 48 VRB 6 9 30.04 1017 10 16 0.00 0.00
3:53 pm 15:53 Mostly Cloudy 76 24.4 53 11.7 45 45 VRB 3 6 30.03 1017 10 16 0.00 0.00
4:53 pm 16:53 Mostly Cloudy 76 24.4 53 11.7 45 45 VRB 3 6 30.03 1017 10 16 0.00 0.00
5:53 pm 17:53 Cloudy 76 24.4 53 11.7 45 45 Calm 30.04 1017 10 16 0.00 0.00
6:53 pm 18:53 Mostly Cloudy 75 23.9 53 11.7 46 46 Calm 30.05 1018 10 16 0.00 0.00
7:53 pm 19:53 Partly Cloudy 71 21.7 53 11.7 53 53 Calm 30.06 1018 10 16 0.00 0.00
8:53 pm 20:53 Mostly Clear 64 17.8 55 12.8 73 73 Calm 30.07 1018 10 16 0.00 0.00
9:53 pm 21:53 Clear 63 17.2 55 12.8 76 76 Calm 30.09 1019 10 16 0.00 0.00
10:53 pm 22:53 Clear 60 15.6 55 12.8 84 84 Calm 30.10 1019 10 16 0.00 0.00
11:53 pm 23:53 Clear 60 15.6 55 12.8 84 84 Calm 30.11 1020 8 13 0.00 0.00

Powered by AerisWeather